Weather History for Joplin, MO

Change the Weather History Date:

Friday, September 21, 2012

  Actual Average Record
Temperature  
Mean Temperature 69 °F 68 °F  
Max Temperature 82 °F 80 °F 95 °F (1956)
Min Temperature 56 °F 57 °F 35 °F (1983)
Degree Days  
Heating Degree Days 0 2  
Month to date heating degree days 14 13  
Since 1 July heating degree days 14 14  
Cooling Degree Days 4 5  
Month to date cooling degree days 157 176  
Year to date cooling degree days 2028 1603  
Growing Degree Days 20 (Base 50)    
Moisture  
Dew Point 53 °F    
Average Humidity 64    
Maximum Humidity 93    
Minimum Humidity 34    
Precipitation  
Precipitation 0.31 in 0.17 in 4.10 in (1965)
Month to date precipitation 7.10 3.50  
Year to date precipitation 30.92 34.47  
Snow  
Snow 0.00 in - - ()
Month to date snowfall 0.0  
Since 1 July snowfall 0.0  
Since 1 September snowfall 0.0  
Snow Depth 0.00 in    
Sea Level Pressure  
Sea Level Pressure 29.91 in    
Wind  
Wind Speed 7 mph (South)    
Max Wind Speed 17 mph    
Max Gust Speed 22 mph    
Visibility 9 miles    
Events Rain , Thunderstorm    
T = Trace of Precipitation, MM = Missing Value Source: NWS Daily Summary

Daily Weather History Graph

Daily Weather History Graph

Search for Another Location

Airport:

Trip Planner

Search our weather history database for the weather conditions in past years. The results will help you decide how hot, cold, wet, or windy it might be!

Date:

Astronomy

Sep. 21, 2012 Rise Set
Actual Time 7:05 AM CDT 7:15 PM CDT
Civil Twilight 6:39 AM CDT 7:41 PM CDT
Nautical Twilight 6:09 AM CDT 8:11 PM CDT
Astronomical Twilight 5:38 AM CDT 8:42 PM CDT
Moon 1:19 PM CDT (9/21) 11:25 PM CDT (9/21)
Length of Visible Light 13h 02m
Length of Day
12h 10m
Waxing Crescent, 37% of the Moon is Illuminated
Sep 21
Waxing Crescent
Sep 22
First Quarter
Sep 29
Full
Oct 8
Last Quarter
Oct 15
New

Hourly Weather History & Observations

Time (CDT) Temp. Heat Index Dew Point Humidity Pressure Visibility Wind Dir Wind Speed Gust Speed Precip Events Conditions
12:53 AM 64.0 °F - 46.9 °F 54% 29.94 in 10.0 mi East 5.8 mph - N/A   Scattered Clouds
1:33 AM 64.4 °F - 46.4 °F 52% 29.93 in 10.0 mi SE 5.8 mph - N/A Thunderstorm Mostly Cloudy
1:51 AM 64.4 °F - 46.4 °F 52% 29.92 in 10.0 mi SE 3.5 mph - N/A   Partly Cloudy
1:53 AM 64.9 °F - 46.9 °F 52% 29.90 in 10.0 mi Calm Calm - N/A   Partly Cloudy
2:53 AM 64.0 °F - 48.0 °F 56% 29.92 in 10.0 mi ENE 8.1 mph - 0.00 in Thunderstorm Mostly Cloudy
3:22 AM 62.6 °F - 51.8 °F 68% 29.94 in 1.5 mi ESE 15.0 mph 20.7 mph 0.25 in Rain , Thunderstorm Heavy Thunderstorms and Rain
3:33 AM 59.0 °F - 55.4 °F 88% 29.95 in 4.0 mi ENE 8.1 mph - 0.27 in Rain , Thunderstorm Light Thunderstorms and Rain
3:53 AM 59.0 °F - 55.4 °F 88% 29.94 in 8.0 mi ESE 10.4 mph - N/A Rain , Thunderstorm Thunderstorms and Rain
4:06 AM 60.8 °F - 55.4 °F 82% 29.94 in 10.0 mi ESE 10.4 mph - 0.00 in   Mostly Cloudy
4:53 AM 57.9 °F - 55.0 °F 90% 29.91 in 10.0 mi SE 10.4 mph - 0.00 in   Scattered Clouds
5:53 AM 57.9 °F - 55.0 °F 90% 29.89 in 10.0 mi SE 4.6 mph - N/A   Clear
6:53 AM 60.1 °F - 57.0 °F 90% 29.87 in 10.0 mi South 6.9 mph - N/A   Clear
7:53 AM 62.1 °F - 59.0 °F 90% 29.88 in 10.0 mi SSE 3.5 mph - N/A   Clear
8:53 AM 66.0 °F - 60.1 °F 81% 29.88 in 10.0 mi SSW 5.8 mph - N/A   Clear
9:53 AM 71.1 °F - 61.0 °F 70% 29.89 in 10.0 mi SW 11.5 mph - N/A   Clear
10:53 AM 75.9 °F - 62.1 °F 62% 29.89 in 10.0 mi SW 15.0 mph - N/A   Clear
11:53 AM 78.1 °F - 62.1 °F 58% 29.89 in 10.0 mi WSW 10.4 mph - N/A   Clear
12:53 PM 79.0 °F - 61.0 °F 54% 29.89 in 10.0 mi WNW 15.0 mph - N/A   Clear
1:53 PM 80.1 °F 80.2 °F 55.9 °F 43% 29.88 in 10.0 mi NNW 8.1 mph - N/A   Clear
2:53 PM 81.0 °F - 52.0 °F 36% 29.86 in 10.0 mi WNW 8.1 mph - N/A   Clear
3:53 PM 82.0 °F - 52.0 °F 35% 29.86 in 10.0 mi West 10.4 mph 16.1 mph N/A   Clear
4:53 PM 82.0 °F 81.2 °F 53.1 °F 37% 29.86 in 10.0 mi West 9.2 mph - N/A   Clear
5:53 PM 81.0 °F 80.7 °F 55.0 °F 41% 29.86 in 10.0 mi West 8.1 mph - N/A   Clear
6:53 PM 73.9 °F - 52.0 °F 46% 29.88 in 10.0 mi WNW 4.6 mph - N/A   Clear
7:53 PM 70.0 °F - 50.0 °F 49% 29.91 in 10.0 mi Variable 4.6 mph - N/A   Clear
8:53 PM 70.0 °F - 48.9 °F 47% 29.93 in 10.0 mi Calm Calm - N/A   Clear
9:53 PM 66.0 °F - 48.0 °F 52% 29.96 in 10.0 mi NNW 4.6 mph - N/A   Clear
10:53 PM 64.9 °F - 44.1 °F 47% 29.97 in 10.0 mi NNW 3.5 mph - N/A   Clear
11:53 PM 62.1 °F - 43.0 °F 50% 29.97 in 10.0 mi Calm Calm - N/A   Clear